Location: Aressy
(43.2833°N, 0.3167°W)
Time: 00:48:52
(UTC+00:00)

CZ-2C R/B - Pass Details

Date: 28 January 2021
Orbit: 785 x 870 km, 98.2° (Epoch: 08 March)

Event Time Altitude Azimuth Distance (km) Brightness Sun altitude
Exits shadow 20:15:02 11° 355° (N) 2,433 5.2 -34.0°
Maximum altitude 20:19:48 35° 293° (WNW) 1,381 4.2 -34.9°
Drops below altitude 10° 20:24:48 10° 230° (SW) 2,512 5.6 -35.8°
Sets 20:27:22 0° 221° (SW) 3,444 6.2 -36.2°
